Location: Canyon City
(32.5951°N, 116.5278°W)
Time: 01:25:16
(UTC+00:00)

Cosmos 2322 Rocket - Pass Details

Date: 08 September 2024
Orbit: 831 x 850 km, 71.0° (Epoch: 10 October)

Event Time Altitude Azimuth Distance (km) Brightness Sun altitude
Rises 12:37:49 0° 333° (NNW) 3,410 5.2 -10.8°
Reaches altitude 10° 12:40:20 10° 328° (NNW) 2,469 4.4 -10.3°
Maximum altitude 12:45:47 51° 254° (WSW) 1,055 2.3 -9.1°
Drops below altitude 10° 12:51:11 10° 180° (S) 2,443 4.5 -8.0°
Sets 12:53:40 0° 175° (S) 3,371 5.3 -7.5°
